User: anonymous   Login
Location: Unspecified
(0.0000°N, 0.0000°E)
Time: 09:59:25
(UTC+01:00)
Language:

ADEOS II - Orbit

View from above orbital plane
View from above orbital plane
View from above satellite
View from above satellite

Ground track
Ground track

The orbit data is extracted from the following two-line orbital elements,

1 27597U 02056A   18051.91370399 +.00000039 +00000-0 +33154-4 0  9991
2 27597 098.4062 016.3690 0001005 030.4093 329.7146 14.27335473790907
Epoch (UTC): 20 February 2018 21:55:44
Eccentricity: 0.0001005
inclination: 98.4062°
perigee height: 800 km
apogee height: 801 km
right ascension of ascending node: 16.3690°
argument of perigee: 30.4093°
revolutions per day: 14.27335473
mean anomaly at epoch: 329.7146°
orbit number at epoch: 79090

The dashed part of the orbit path shows where the satellite is in the earth's shadow,  

DLR